Weather History for South Bend, IN

Change the Weather History Date:

Tuesday, July 9, 2013

  Actual Average Record
Temperature  
Mean Temperature 79 °F 73 °F  
Max Temperature 88 °F 83 °F 102 °F (1936)
Min Temperature 69 °F 63 °F 49 °F (1899)
Degree Days  
Heating Degree Days 0 0  
Month to date heating degree days 3 0  
Since 1 June heating degree days 40 44  
Since 1 July heating degree days 3 0  
Cooling Degree Days 14 8  
Month to date cooling degree days 61 72  
Year to date cooling degree days 322 293  
Since 1 June cooling degree days 226 237  
Growing Degree Days 28 (Base 50)    
Moisture  
Dew Point 72 °F    
Average Humidity 87    
Maximum Humidity 100    
Minimum Humidity 74    
Precipitation  
Precipitation 0.55 in 0.12 in 3.64 in (1989)
Month to date precipitation 1.43 1.09  
Year to date precipitation 22.16 18.60  
Snow  
Snow 0.00 in - - ()
Month to date snowfall 0.0  
Since 1 June snowfall 0.0  
Snow Depth 0.00 in    
Sea Level Pressure  
Sea Level Pressure 29.98 in    
Wind  
Wind Speed 6 mph (WSW)    
Max Wind Speed 29 mph    
Max Gust Speed 39 mph    
Visibility 5 miles    
Events Fog , Rain , Thunderstorm    
T = Trace of Precipitation, MM = Missing Value Source: NWS Daily Summary

Daily Weather History Graph

Daily Weather History Graph

Search for Another Location

Airport:

Trip Planner

Search our weather history database for the weather conditions in past years. The results will help you decide how hot, cold, wet, or windy it might be!

Date:

Astronomy

Jul. 09, 2013 Rise Set
Actual Time 6:19 AM EDT 9:21 PM EDT
Civil Twilight 5:45 AM EDT 9:54 PM EDT
Nautical Twilight 5:03 AM EDT 10:37 PM EDT
Astronomical Twilight 4:12 AM EDT 11:27 PM EDT
Moon 7:45 AM EDT (7/9) 9:56 PM EDT (7/9)
Length of Visible Light 16h 08m
Length of Day
15h 01m
New Moon, 2% of the Moon is Illuminated
Jul 9
New Moon
Jul 15
First Quarter
Jul 22
Full
Jul 29
Last Quarter
Aug 6
New

Hourly Weather History & Observations

Time (EDT) Temp. Heat Index Dew Point Humidity Pressure Visibility Wind Dir Wind Speed Gust Speed Precip Events Conditions
12:34 AM 73.4 °F - 69.8 °F 88% 30.00 in 10.0 mi WSW 8.1 mph - 0.01 in   Partly Cloudy
12:54 AM 73.0 °F - 70.0 °F 90% 29.99 in 10.0 mi SW 6.9 mph - 0.01 in   Partly Cloudy
1:54 AM 73.9 °F - 71.1 °F 91% 29.99 in 10.0 mi WSW 9.2 mph - N/A   Clear
2:54 AM 73.0 °F - 70.0 °F 90% 29.99 in 8.0 mi WSW 4.6 mph - N/A   Clear
3:54 AM 73.0 °F - 70.0 °F 90% 29.99 in 6.0 mi Calm Calm - N/A   Clear
4:29 AM 71.6 °F - 69.8 °F 94% 30.01 in 1.5 mi Calm Calm - N/A   Clear
4:35 AM 71.6 °F - 69.8 °F 94% 30.00 in 0.8 mi Calm Calm - N/A   Mist
4:49 AM 69.8 °F - 68.0 °F 94% 30.01 in 0.2 mi Calm Calm - N/A Fog Fog
4:54 AM 70.0 °F - 68.0 °F 93% 29.99 in 0.2 mi Calm Calm - N/A Fog Fog
5:22 AM 69.8 °F - 69.8 °F 100% 30.01 in 0.5 mi Calm Calm - N/A Fog Fog
5:50 AM 69.8 °F - 66.2 °F 88% 30.01 in 0.2 mi Calm Calm - N/A Fog Fog
5:54 AM 70.0 °F - 68.0 °F 93% 29.99 in 0.2 mi Calm Calm - N/A Fog Fog
6:54 AM 71.1 °F - 69.1 °F 93% 30.00 in 0.2 mi Calm Calm - N/A Fog Fog
7:20 AM 71.6 °F - 69.8 °F 94% 30.02 in 0.5 mi Calm Calm - N/A Fog Fog
7:47 AM 71.6 °F - 71.6 °F 100% 30.02 in 0.5 mi Calm Calm - 0.00 in Fog Fog
7:54 AM 72.0 °F - 71.1 °F 97% 30.00 in 0.8 mi Calm Calm - 0.00 in   Mostly Cloudy
8:10 AM 73.4 °F - 71.6 °F 94% 30.01 in 0.8 mi SSW 3.5 mph - N/A   Overcast
8:17 AM 73.4 °F - 71.6 °F 94% 30.01 in 0.8 mi Calm Calm - N/A   Overcast
8:54 AM 73.9 °F - 72.0 °F 93% 30.01 in 3.0 mi WSW 4.6 mph - N/A   Overcast
9:23 AM 75.2 °F - 71.6 °F 89% 30.03 in 3.0 mi Calm Calm - N/A   Overcast
9:54 AM 77.0 °F - 73.0 °F 88% 30.01 in 4.0 mi Variable 3.5 mph - N/A   Mostly Cloudy
10:20 AM 78.8 °F - 73.4 °F 83% 30.02 in 5.0 mi WSW 4.6 mph - N/A   Haze
10:54 AM 81.0 °F 86.2 °F 73.9 °F 79% 30.00 in 6.0 mi SW 4.6 mph - N/A   Haze
11:54 AM 84.0 °F 91.9 °F 75.0 °F 74% 29.99 in 10.0 mi SW 10.4 mph - N/A   Scattered Clouds
12:12 PM 84.2 °F 90.9 °F 73.4 °F 70% 30.00 in 10.0 mi WSW 6.9 mph - N/A   Mostly Cloudy
12:54 PM 86.0 °F 95.1 °F 75.0 °F 70% 29.98 in 10.0 mi WSW 10.4 mph - N/A   Mostly Cloudy
1:54 PM 88.0 °F 96.5 °F 73.9 °F 63% 29.95 in 10.0 mi WSW 12.7 mph - N/A   Scattered Clouds
2:13 PM 86.0 °F 93.4 °F 73.4 °F 66% 29.96 in 10.0 mi WSW 12.7 mph - N/A Thunderstorm Scattered Clouds
2:23 PM 82.4 °F 88.2 °F 73.4 °F 74% 29.98 in 1.2 mi West 28.8 mph 36.8 mph 0.00 in Rain , Thunderstorm Heavy Thunderstorms and Rain
2:26 PM 78.8 °F - 73.4 °F 83% 29.99 in 0.5 mi West 28.8 mph 39.1 mph 0.08 in Fog , Rain , Thunderstorm Heavy Thunderstorms and Rain
2:31 PM 75.2 °F - 71.6 °F 89% 30.00 in 0.2 mi West 23.0 mph 39.1 mph 0.31 in Fog , Rain , Thunderstorm Heavy Thunderstorms and Rain
2:34 PM 75.2 °F - 71.6 °F 89% 29.99 in 0.5 mi WNW 19.6 mph 39.1 mph 0.32 in Fog , Rain , Thunderstorm Heavy Thunderstorms and Rain
2:36 PM 75.2 °F - 71.6 °F 89% 30.00 in 1.0 mi WNW 17.3 mph 32.2 mph 0.33 in Rain , Thunderstorm Thunderstorms and Rain
2:38 PM 73.4 °F - 69.8 °F 88% 29.99 in 2.5 mi WNW 17.3 mph 32.2 mph 0.34 in Rain , Thunderstorm Thunderstorms and Rain
2:45 PM 73.4 °F - 71.6 °F 94% 30.00 in 5.0 mi WNW 10.4 mph - 0.35 in Rain , Thunderstorm Thunderstorms and Rain
2:52 PM 75.2 °F - 71.6 °F 89% 30.01 in 2.5 mi West 20.7 mph 32.2 mph 0.36 in Rain , Thunderstorm Light Thunderstorms and Rain
2:54 PM 75.0 °F - 71.1 °F 87% 29.99 in 2.0 mi West 23.0 mph 32.2 mph 0.38 in Rain , Thunderstorm Heavy Thunderstorms and Rain
3:21 PM 75.2 °F - 69.8 °F 83% 29.99 in 10.0 mi WSW 8.1 mph - 0.14 in Rain Light Rain
3:34 PM 75.2 °F - 71.6 °F 89% 29.99 in 7.0 mi SW 6.9 mph - 0.14 in Rain , Thunderstorm Light Rain
3:54 PM 75.0 °F - 72.0 °F 90% 29.97 in 7.0 mi SW 5.8 mph - 0.17 in Rain Light Rain
4:54 PM 78.1 °F - 73.9 °F 87% 29.95 in 10.0 mi SSW 5.8 mph - 0.00 in   Mostly Cloudy
5:54 PM 81.0 °F 86.2 °F 73.9 °F 79% 29.93 in 10.0 mi SW 8.1 mph - N/A   Scattered Clouds
6:54 PM 80.1 °F 84.5 °F 73.9 °F 81% 29.91 in 10.0 mi WSW 4.6 mph - N/A   Partly Cloudy
7:54 PM 81.0 °F 86.2 °F 73.9 °F 79% 29.90 in 10.0 mi SW 5.8 mph - N/A   Mostly Cloudy
8:54 PM 79.0 °F - 73.0 °F 82% 29.90 in 10.0 mi SSW 4.6 mph - N/A   Mostly Cloudy
9:54 PM 78.1 °F - 73.0 °F 84% 29.89 in 10.0 mi South 5.8 mph - N/A   Mostly Cloudy
10:54 PM 79.0 °F - 73.9 °F 84% 29.89 in 10.0 mi SSW 10.4 mph - N/A   Clear
11:54 PM 79.0 °F - 73.9 °F 84% 29.89 in 10.0 mi SW 10.4 mph - N/A   Clear